Regional Weather Roundup
Issued by NWS

Home | Current Version | Previous Version | Graphics & Text | Print | Product List | Glossary On
Versions: 1 2 3 4 5 6 7 8 9 10 11 12 13 14 15 16 17 18 19 20 21 22 23 24 25 26 27 28 29 30 31 32 33 34 35 36 37 38 39 40 41 42 43 44 45 46 47 48 49 50
000
ASUS44 KMEG 231900
RWRTN
TENNESSEE HOURLY STATE WEATHER ROUNDUP
NATIONAL WEATHER SERVICE MEMPHIS TN
200 PM CDT THU OCT 23 2014

TNZ002-004-019-021-049-052-054-088>092-232000-
WEST TENNESSEE

CITY           SKY/WX    TMP DP  RH WIND       PRES   REMARKS
MEMPHIS INTL   CLOUDY    65  41  41 N5        30.14F
NWS MEMPHIS      N/A     62 N/A N/A MISG        N/A
JACKSON        PTSUNNY   66  42  41 VRB6      30.15F
DYERSBURG      CLOUDY    61  39  44 NE5       30.17F
UNION CITY     SUNNY     57  45  62 CALM      30.16F
PARIS          SUNNY     59  43  55 N7        30.16F
LEXINGTON      SUNNY     63  41  45 CALM      30.13F
SAVANNAH       SUNNY     63  45  51 VRB5      30.14F
$$

TNZ008-025-027-028-033-062-065-066-232000-
NORTH MIDDLE TENNESSEE

CITY           SKY/WX    TMP DP  RH WIND       PRES   REMARKS
NASHVILLE      PTSUNNY   64  41  42 NE3       30.15F
CLARKSVILLE    PTSUNNY   62  42  47 VRB3      30.15F
COOKEVILLE     SUNNY     64  46  52 VRB6      30.12F
CROSSVILLE     SUNNY     63  39  41 VRB3      30.12F
$$

TNZ061-075-076-078-094-096-097-232000-
SOUTH MIDDLE TENNESSEE

CITY           SKY/WX    TMP DP  RH WIND       PRES   REMARKS
FAYETTEVILLE   SUNNY     64  39  39 VRB5      30.11F
TULLAHOMA      SUNNY     63  39  42 VRB6      30.13F
WINCHESTER     SUNNY     64  43  45 VRB6      30.11F
MCMINNVILLE    SUNNY     63  45  51 CALM      30.13F
SHELBYVILLE    SUNNY     66  45  45 VRB6      30.14F
$$

TNZ017-018-042-046-047-232000-
NORTHEAST TENNESSEE

CITY           SKY/WX    TMP DP  RH WIND       PRES   REMARKS
TRI CITIES     MOSUNNY   57  40  52 VRB6      30.13F
ELIZABETHTON   CLEAR     57  39  51 W8        30.11F
$$

TNZ012-013-036-069-073-074-232000-
CENTRAL EAST TENNESSEE

CITY           SKY/WX    TMP DP  RH WIND       PRES   REMARKS
KNOXVILLE      MOSUNNY   62  42  47 N12       30.10F
OAK RIDGE      SUNNY     62  41  46 NE9       30.13F
GATLINBURG     CLEAR     59  41  51 NE8       30.11F
MORRISTOWN     CLEAR     57  39  51 E5        30.13F
$$

TNZ083-085-099-232000-
SOUTHEAST TENNESSEE

CITY           SKY/WX    TMP DP  RH WIND       PRES   REMARKS
CHATTANOOGA    PTSUNNY   65  42  43 N10       30.10F
$$

SKY/WX REPORTED AS FAIR MEANS FEW OR NO CLOUDS BELOW
12 THOUSAND FEET.




USA.gov is the U.S. government's official web portal to all federal, state and local government web resources and services.